Location: Leipzig
(51.3203°N, 12.3761°E)
Time: 07:17:16
(UTC+01:00)

ISS - Pass Details

Date: 29 November 2021
Orbit: 413 x 422 km, 51.6° (Epoch: 22 January)

Event Time Altitude Azimuth Distance (km) Brightness Sun altitude
Rises 18:33:43 0° 278° (W) 2,385 1.4 -22.0°
Reaches altitude 10° 18:35:50 10° 278° (W) 1,516 0.1 -22.4°
Enters shadow 18:38:31 53° 277° (W) 528 -3.0 -22.8°
